Погода в Мысах

Россия / Удмуртская Республика     58°08′09″N   53°50′57″E
темп.,
°C
ветер,
м/с
пор.,
м/с
влажн.,
%
обл.,
%
осадки,
мм/ч
давл.,
гПа
погр.,
м
19 января, вт
вт1901:00−24юз119719 0.0 102220
04:00−24св009637 0.0 102220
07:00−23в1297100 0.0 102120
10:00−22в2498100 0.0 1020110
13:00−18всв2394100 0.0 1019129
16:00−18св3695100 0.0 1017148
19:00−18всв3795100 0.0 1015218
22:00−18всв2597100 0.0 1014157
20 января, ср
ср2001:00−17св2397100 0.4 101295
04:00−16св1297100 0.6 101244
07:00−15всв1197100 0.3 101020
10:00−15з1197100 0.5 101141
13:00−13з1293100 0.1 1011237
16:00−14зюз2496100 0.3 1011189
19:00−20зюз2510099 0.0 1011104
22:00−20з379783 0.1 1011220
21 января, чт
чт2101:00−19з389697 0.1 1011257
04:00−20з389795 0.1 1012232
07:00−21з379997 0.1 1012171
10:00−20з389998 0.1 1013226
13:00−18зюз3796100 0.0 1012270
16:00−17зюз3896100 0.1 1012341
19:00−17зюз3996100 0.1 1012352
22:00−17з2797100 0.1 1011291
22 января, пт
пт2201:00−18з2498100 0.1 1011125
04:00−18зюз1298100 0.2 101122
07:00−18ссз1198100 0.3 101220
10:00−18ссз1198100 0.4 101333
13:00−18с129585 0.1 1014237
16:00−21ссв229991 0.1 101622
19:00−25ссв239980 0.0 101831
22:00−27св239940 0.0 102137
23 января, сб
сб2301:00−27всв239977 0.0 102347
04:00−28в239961 0.0 102566
07:00−28вюв379886 0.0 1026175
10:00−27вюв379693 0.0 1026223
13:00−24вюв3696100 0.0 1026251
16:00−23вюв4898100 0.8 1023259
19:00−21вюв4998100 1.3 1022328
22:00−19вюв41095100 1.8 1020440